Location: Bastogne Gables
(35.1554°N, 78.9900°W)
Time: 20:50:25
(UTC+00:00)

CZ-2D R/B - Pass Details

Date: 29 October 2020
Orbit: 521 x 537 km, 97.4° (Epoch: 25 November)

Event Time Altitude Azimuth Distance (km) Brightness Sun altitude
Rises 23:38:34 0° 165° (SSE) 2,648 6.7 -15.8°
Reaches altitude 10° 23:40:40 10° 164° (SSE) 1,760 5.8 -16.2°
Maximum altitude 23:44:27 80° 78° (ENE) 537 3.1 -17.0°
Drops below altitude 10° 23:48:16 10° 351° (N) 1,766 5.9 -17.8°
Sets 23:50:22 0° 350° (N) 2,657 6.9 -18.2°
